Regional Weather Roundup
Issued by NWS

Home | Current Version | Previous Version | Graphics & Text | Print | Product List | Glossary Off
Versions: 1 2 3 4 5 6 7 8 9 10 11 12 13 14 15 16 17 18 19 20 21 22 23 24 25 26 27 28 29 30 31 32 33 34 35 36 37 38 39 40 41 42 43 44 45 46 47 48 49 50

000
ASUS44 KMEG 060610
RWRTN
TENNESSEE HOURLY STATE WEATHER ROUNDUP
NATIONAL WEATHER SERVICE MEMPHIS TN
1200 AM CST TUE DEC 06 2016

TNZ002-004-019-021-049-052-054-088>092-060700-
WEST TENNESSEE

CITY           SKY/WX    TMP DP  RH WIND       PRES   REMARKS
MEMPHIS INTL   LGT RAIN  46  46 100 NE7       29.68F
NWS MEMPHIS      N/A     46 N/A N/A MISG        N/A
JACKSON        LGT RAIN  47  46  97 NE3       29.70F FOG
DYERSBURG      CLOUDY   N/A N/A N/A E6        29.71F
UNION CITY     CLOUDY    43  43 100 NE3       29.72F
PARIS          CLOUDY    41  41 100 NE3       29.72F
HUNTINGDON     CLOUDY    45  45 100 NE5       29.71F FOG
LEXINGTON      MOCLDY    45  45 100 NE3       29.68F
$$

TNZ008-025-027-028-033-062-065-066-060700-
NORTH MIDDLE TENNESSEE

CITY           SKY/WX    TMP DP  RH WIND       PRES   REMARKS
NASHVILLE      LGT RAIN  48  46  93 NW5       29.77R
PORTLAND       CLOUDY    46  46 100 CALM      29.77R FOG
CLARKSVILLE    LGT RAIN  44  42  93 E6        29.74F FOG
SMYRNA         LGT RAIN  48  46  93 NW7       29.76R
CROSSVILLE     CLOUDY    50  48  93 VRB7      29.77F
$$

TNZ061-075-076-078-094-096-097-060700-
SOUTH MIDDLE TENNESSEE

CITY           SKY/WX    TMP DP  RH WIND       PRES   REMARKS
FAYETTEVILLE   CLOUDY    54  54 100 CALM      29.75R FOG
TULLAHOMA      CLOUDY    52  52 100 SE5       29.77R
WINCHESTER     CLOUDY    54  52  94 SE9       29.77R
MCMINNVILLE    MOCLDY    54  54 100 CALM      29.76R
COLUMBIA         N/A    N/A N/A N/A NE3       29.71F
SHELBYVILLE    MOCLDY    54  52  94 SE6       29.75F
$$

TNZ017-018-042-046-047-060700-
NORTHEAST TENNESSEE

CITY           SKY/WX    TMP DP  RH WIND       PRES   REMARKS
TRI CITIES     CLOUDY    49  46  90 E7        29.87F
ELIZABETHTON   DRIZZLE   52  45  76 E13G23    29.89F
$$

TNZ012-013-036-069-073-074-060700-
CENTRAL EAST TENNESSEE

CITY           SKY/WX    TMP DP  RH WIND       PRES   REMARKS
KNOXVILLE      LGT RAIN  48  46  93 NW7       29.79F
OAK RIDGE      CLOUDY    50  45  83 CALM      29.82S
DOWNTOWN KNOXV CLOUDY    48  48 100 CALM      29.81S
GATLINBURG     MOCLDY    46  46 100 CALM      29.79F
MORRISTOWN     CLOUDY    50  48  93 E8        29.78F
JACKSBORO      MOCLDY    48  46  93 CALM      29.84F
$$

TNZ083-085-099-060700-
SOUTHEAST TENNESSEE

CITY           SKY/WX    TMP DP  RH WIND       PRES   REMARKS
CHATTANOOGA    LGT RAIN  50  49  96 CALM      29.80F
$$

SKY/WX REPORTED AS FAIR MEANS FEW OR NO CLOUDS BELOW
12 THOUSAND FEET.





USA.gov is the U.S. government's official web portal to all federal, state and local government web resources and services.